Canby, MN

11:13 AM CDT on August 25, 2016 (GMT -0500)
Canby

Weather History for KCNB - October, 2012

Change the Weather History Date:

Saturday, October 13, 2012

  Actual Average (KMML) Record (KMML)
Temperature  
Mean Temperature 52 °F -  
Max Temperature 64 °F 61 °F 86 °F (1975)
Min Temperature 40 °F 37 °F 22 °F (1979)
Degree Days  
Heating Degree Days 13    
Growing Degree Days 2 (Base 50)    
Moisture  
Dew Point 44 °F    
Average Humidity 69    
Maximum Humidity 88    
Minimum Humidity 55    
Precipitation  
Precipitation 0.00 in - - ()
Sea Level Pressure  
Sea Level Pressure 29.74 in    
Wind  
Wind Speed 8 mph (SSW)    
Max Wind Speed 18 mph    
Max Gust Speed 29 mph    
Visibility 9 miles    
Events      
Averages and records for this station are not official NWS values.
T = Trace of Precipitation, MM = Missing Value Source: NWS Daily Summary

Daily Weather History Graph

Daily Weather History Graph

Search for Another Location

Airport or City:

Trip Planner

Search our weather history database for the weather conditions in past years. The results will help you decide how hot, cold, wet, or windy it might be!

Date:

Astronomy

Oct. 13, 2012 Rise Set
Actual Time 7:38 AM CDT 6:42 PM CDT
Civil Twilight 7:09 AM CDT 7:12 PM CDT
Nautical Twilight 6:35 AM CDT 7:46 PM CDT
Astronomical Twilight 6:01 AM CDT 8:19 PM CDT
Moon 5:25 AM CDT (10/13) 5:29 PM CDT (10/13)
Length of Visible Light 12h 03m
Length of Day
11h 04m
Waning Crescent, 5% of the Moon is Illuminated
Oct 13
Waning Crescent
Oct 15
New
Oct 21
First Quarter
Oct 29
Full
Nov 6
Last Quarter

Hourly Weather History & Observations

Time (CDT) Temp. Windchill Dew Point Humidity Pressure Visibility Wind Dir Wind Speed Gust Speed Precip Events Conditions
12:15 AM 52.7 °F - 38.7 °F 59% 29.90 in 10.0 mi South 18.4 mph 28.8 mph N/A   Overcast
12:54 AM 51.1 °F - 39.7 °F 65% 29.88 in 10.0 mi South 10.4 mph 25.3 mph N/A   Overcast
1:14 AM 51.3 °F - 39.4 °F 64% 29.88 in 10.0 mi SSW 12.7 mph 23.0 mph N/A   Overcast
1:35 AM 51.3 °F - 38.7 °F 62% 29.87 in 10.0 mi SSW 9.2 mph 17.3 mph N/A   Overcast
1:55 AM 50.7 °F - 38.7 °F 63% 29.85 in 10.0 mi South 9.2 mph 16.1 mph N/A   Mostly Cloudy
2:15 AM 50.2 °F - 39.0 °F 66% 29.84 in 10.0 mi South 10.4 mph - N/A   Scattered Clouds
2:35 AM 49.6 °F - 38.7 °F 66% 29.83 in 10.0 mi South 6.9 mph - N/A   Clear
2:54 AM 49.5 °F - 38.8 °F 67% 29.81 in 10.0 mi SSE 5.8 mph - N/A   Clear
3:14 AM 48.6 °F - 38.5 °F 68% 29.80 in 10.0 mi SSE 5.8 mph - N/A   Clear
3:35 AM 47.5 °F - 38.5 °F 71% 29.79 in 10.0 mi SSE 6.9 mph - N/A   Clear
3:54 AM 48.4 °F - 39.2 °F 71% 29.80 in 10.0 mi SSE 6.9 mph - N/A   Clear
4:14 AM 48.4 °F - 39.4 °F 71% 29.78 in 10.0 mi SSE 6.9 mph - N/A   Clear
4:34 AM 49.3 °F - 40.3 °F 71% 29.78 in 10.0 mi SSE 5.8 mph - N/A   Clear
4:55 AM 48.9 °F - 41.0 °F 74% 29.79 in 10.0 mi SSE 9.2 mph - N/A   Clear
5:14 AM 49.1 °F - 41.7 °F 76% 29.77 in 10.0 mi South 8.1 mph - N/A   Clear
5:55 AM 49.3 °F - 42.3 °F 77% 29.76 in 10.0 mi Calm Calm - N/A   Clear
6:15 AM 49.3 °F - 42.6 °F 78% 29.76 in 10.0 mi Calm Calm - N/A   Clear
6:34 AM 48.4 °F - 42.4 °F 80% 29.75 in 10.0 mi Calm Calm - N/A   Clear
6:54 AM 46.8 °F - 41.4 °F 81% 29.75 in 10.0 mi SSE 6.9 mph - N/A   Clear
7:14 AM 48.2 °F - 42.8 °F 82% 29.74 in 10.0 mi SSE 6.9 mph - N/A   Scattered Clouds
7:35 AM 48.2 °F - 42.8 °F 82% 29.73 in 10.0 mi SSE 8.1 mph - N/A   Clear
7:54 AM 47.8 °F - 42.8 °F 83% 29.72 in 7.0 mi SSE 6.9 mph - N/A   Scattered Clouds
8:14 AM 47.7 °F - 43.0 °F 84% 29.71 in 7.0 mi SSE 4.6 mph - N/A   Mostly Cloudy
8:54 AM 51.8 °F - 46.4 °F 82% 29.71 in 7.0 mi South 8.1 mph - N/A   Overcast
9:34 AM 53.2 °F - 47.5 °F 81% 29.71 in 5.0 mi SSW 6.9 mph - N/A   Haze
9:55 AM 54.0 °F - 47.7 °F 79% 29.71 in 5.0 mi SW 5.8 mph - N/A   Haze
10:34 AM 55.9 °F - 48.2 °F 75% 29.71 in 7.0 mi SW 8.1 mph - N/A   Overcast
10:55 AM 56.3 °F - 48.2 °F 74% 29.70 in 7.0 mi WSW 9.2 mph - N/A   Overcast
11:15 AM 57.9 °F - 48.4 °F 71% 29.69 in 7.0 mi SW 6.9 mph - N/A   Overcast
11:34 AM 58.8 °F - 48.4 °F 68% 29.69 in 7.0 mi SSW 4.6 mph - N/A   Overcast
11:55 AM 59.5 °F - 48.2 °F 66% 29.68 in 7.0 mi West 3.5 mph - N/A   Overcast
12:14 PM 60.6 °F - 48.2 °F 64% 29.68 in 7.0 mi Calm Calm - N/A   Overcast
12:34 PM 60.6 °F - 48.2 °F 64% 29.69 in 7.0 mi South 4.6 mph - N/A   Overcast
12:55 PM 60.8 °F - 48.2 °F 63% 29.68 in 7.0 mi SE 4.6 mph - N/A   Overcast
1:14 PM 61.7 °F - 48.4 °F 62% 29.67 in 7.0 mi SE 3.5 mph - N/A   Overcast
1:34 PM 63.0 °F - 48.2 °F 59% 29.67 in 7.0 mi Calm Calm - N/A   Scattered Clouds
1:55 PM 63.3 °F - 48.2 °F 58% 29.67 in 7.0 mi NNW 4.6 mph - N/A   Clear
2:14 PM 63.0 °F - 47.7 °F 57% 29.67 in 7.0 mi NW 3.5 mph - N/A   Clear
2:35 PM 63.7 °F - 47.7 °F 56% 29.67 in 7.0 mi West 4.6 mph - N/A   Clear
2:54 PM 63.7 °F - 47.5 °F 56% 29.66 in 10.0 mi NW 6.9 mph - N/A   Clear
3:14 PM 63.5 °F - 47.1 °F 55% 29.66 in 10.0 mi NW 9.2 mph - N/A   Clear
3:35 PM 62.8 °F - 47.3 °F 57% 29.66 in 10.0 mi North 4.6 mph - N/A   Scattered Clouds
3:55 PM 63.5 °F - 47.3 °F 56% 29.66 in 10.0 mi NNW 4.6 mph - N/A   Scattered Clouds
4:14 PM 62.8 °F - 46.6 °F 55% 29.67 in 10.0 mi NW 5.8 mph - N/A   Clear
4:34 PM 62.6 °F - 46.6 °F 56% 29.67 in 10.0 mi North 4.6 mph - N/A   Clear
4:55 PM 62.8 °F - 46.8 °F 56% 29.67 in 10.0 mi North 3.5 mph - N/A   Clear
5:14 PM 62.6 °F - 46.8 °F 56% 29.68 in 10.0 mi North 3.5 mph - N/A   Clear
5:55 PM 61.5 °F - 46.8 °F 58% 29.68 in 10.0 mi Calm Calm - N/A   Clear
6:14 PM 60.8 °F - 47.1 °F 61% 29.69 in 7.0 mi Calm Calm - N/A   Clear
6:34 PM 58.5 °F - 46.6 °F 65% 29.70 in 7.0 mi Calm Calm - N/A   Clear
6:55 PM 56.5 °F - 46.4 °F 69% 29.70 in 5.0 mi Calm Calm - N/A   Haze
7:34 PM 52.2 °F - 45.5 °F 78% 29.72 in 10.0 mi Calm Calm - N/A   Clear
7:54 PM 50.0 °F - 43.0 °F 77% 29.73 in 7.0 mi West 3.5 mph - N/A   Clear
9:15 PM 44.2 °F 42.7 °F 38.3 °F 80% 29.76 in 10.0 mi West 3.5 mph - N/A   Clear
9:34 PM 44.8 °F 43.3 °F 38.7 °F 79% 29.76 in 10.0 mi West 3.5 mph - N/A   Clear
9:54 PM 43.3 °F 41.7 °F 37.8 °F 81% 29.76 in 10.0 mi West 3.5 mph - N/A   Clear
10:15 PM 43.9 °F - 39.0 °F 83% 29.76 in 10.0 mi Calm Calm - N/A   Clear
11:14 PM 41.0 °F 39.0 °F 37.2 °F 86% 29.78 in 10.0 mi West 3.5 mph - N/A   Clear
11:35 PM 40.1 °F 36.1 °F 36.9 °F 88% 29.79 in 7.0 mi West 5.8 mph - N/A   Clear